timestamp,surface_pressure_avg,surface_temp_avg,battery_voltage,lat,long
2024-01-12 00:09:00+00:00,352.9929,2.0,11.37,47.84626,-54.09684
2024-01-12 00:19:00+00:00,347.0379,2.0,11.37,47.84626,-54.09684
2024-01-12 00:29:00+00:00,351.4462,1.99,11.37,47.84626,-54.09684
2024-01-12 00:39:00+00:00,349.4097,2.0,11.37,47.84626,-54.09684
2024-01-12 00:49:00+00:00,341.3679,2.0,11.37,47.84626,-54.09684
2024-01-12 00:59:00+00:00,338.028,1.99,11.37,47.84626,-54.09684
2024-01-12 01:09:00+00:00,335.903,1.99,11.37,47.84626,-54.09684
2024-01-12 01:19:00+00:00,330.0312,1.99,11.37,47.84626,-54.09684
2024-01-12 01:29:00+00:00,324.3763,1.98,11.37,47.84626,-54.09684
2024-01-12 01:39:00+00:00,321.7447,1.97,11.37,47.84626,-54.09684
2024-01-12 01:49:00+00:00,314.2714,1.97,11.37,47.84626,-54.09684
2024-01-12 01:59:00+00:00,307.0363,1.93,11.37,47.84626,-54.09684
2024-01-12 02:09:00+00:00,299.8614,1.91,11.37,47.84626,-54.09684
2024-01-12 02:19:00+00:00,293.623,1.93,11.37,47.84626,-54.09684
2024-01-12 02:29:00+00:00,285.6347,1.94,11.37,47.84626,-54.09684
2024-01-12 02:39:00+00:00,283.6281,1.96,11.37,47.84626,-54.09684
2024-01-12 02:49:00+00:00,276.683,1.98,11.37,47.84626,-54.09684
2024-01-12 02:59:00+00:00,260.6514,1.95,11.37,47.84626,-54.09684
2024-01-12 03:09:00+00:00,252.6864,1.95,11.37,47.84626,-54.09684
2024-01-12 03:19:00+00:00,254.1464,1.97,11.37,47.84626,-54.09684
2024-01-12 03:29:00+00:00,245.3114,1.97,11.37,47.84626,-54.09684
2024-01-12 03:39:00+00:00,231.7415,1.95,11.37,47.84626,-54.09684
2024-01-12 03:49:00+00:00,226.8531,1.96,11.37,47.84626,-54.09684
2024-01-12 03:59:00+00:00,225.3747,1.97,11.37,47.84626,-54.09684
2024-01-12 04:09:00+00:00,218.1898,1.97,11.37,47.84626,-54.09684
2024-01-12 04:19:00+00:00,215.1948,1.96,11.37,47.84626,-54.09684
2024-01-12 04:29:00+00:00,213.7664,1.97,11.37,47.84626,-54.09684
2024-01-12 04:39:00+00:00,206.6614,1.96,11.37,47.84626,-54.09684
2024-01-12 04:49:00+00:00,198.8748,1.94,11.37,47.84626,-54.09684
2024-01-12 04:59:00+00:00,197.2698,1.94,11.37,47.84626,-54.09684
2024-01-12 05:09:00+00:00,197.4648,1.94,11.37,47.84626,-54.09684
2024-01-12 05:19:00+00:00,190.7231,1.92,11.37,47.84626,-54.09684
2024-01-12 05:29:00+00:00,188.3682,1.92,11.37,47.84626,-54.09684
2024-01-12 05:39:00+00:00,191.9548,1.93,11.37,47.84626,-54.09684
2024-01-12 05:49:00+00:00,186.0598,1.92,11.37,47.84626,-54.09684
2024-01-12 05:59:00+00:00,181.7231,1.91,11.37,47.84626,-54.09684
2024-01-12 06:09:00+00:00,187.8698,1.92,11.37,47.84626,-54.09684
2024-01-12 06:19:01+00:00,192.2864,1.93,11.37,47.84626,-54.09684
2024-01-12 06:29:01+00:00,191.4315,1.94,11.37,47.84626,-54.09684
2024-01-12 06:39:01+00:00,193.4731,1.94,11.37,47.84626,-54.09684
2024-01-12 06:49:01+00:00,198.4498,1.95,11.37,47.84626,-54.09684
2024-01-12 06:59:01+00:00,199.4431,1.95,11.37,47.84626,-54.09684
2024-01-12 07:09:01+00:00,201.7581,1.95,11.37,47.84626,-54.09684
2024-01-12 07:19:00+00:00,212.3981,1.95,11.37,47.84626,-54.09684
2024-01-12 07:29:00+00:00,223.8364,1.95,11.37,47.84626,-54.09684
2024-01-12 07:39:00+00:00,231.4881,1.95,11.37,47.84626,-54.09684
2024-01-12 07:49:00+00:00,234.4648,1.95,11.37,47.84626,-54.09684
2024-01-12 07:59:00+00:00,236.2647,1.95,11.37,47.84626,-54.09684
2024-01-12 08:09:00+00:00,243.2814,1.95,11.37,47.84626,-54.09684
2024-01-12 08:19:00+00:00,255.7498,1.95,11.37,47.84626,-54.09684
2024-01-12 08:29:00+00:00,263.2981,1.95,11.37,47.84626,-54.09684
2024-01-12 08:39:00+00:00,267.2731,1.94,11.37,47.84626,-54.09684
2024-01-12 08:49:00+00:00,273.2814,1.92,11.37,47.84626,-54.09684
2024-01-12 08:59:00+00:00,284.218,1.91,11.37,47.84626,-54.09684
2024-01-12 09:09:00+00:00,287.853,1.9,11.37,47.84626,-54.09684
2024-01-12 09:19:00+00:00,293.7864,1.9,11.37,47.84626,-54.09684
2024-01-12 09:29:00+00:00,307.1547,1.9,11.37,47.84626,-54.09684
2024-01-12 09:39:00+00:00,316.833,1.9,11.37,47.84626,-54.09684
2024-01-12 09:49:00+00:00,319.2697,1.9,11.37,47.84626,-54.09684
2024-01-12 09:59:00+00:00,328.0913,1.9,11.37,47.84626,-54.09684
2024-01-12 10:09:00+00:00,344.5363,1.9,11.37,47.84626,-54.09684
2024-01-12 10:19:00+00:00,350.848,1.9,11.37,47.84626,-54.09684
2024-01-12 10:29:00+00:00,351.7697,1.9,11.37,47.84626,-54.09684
2024-01-12 10:39:00+00:00,362.0495,1.9,11.37,47.84626,-54.09684
2024-01-12 10:49:00+00:00,368.3546,1.9,11.37,47.84626,-54.09684
2024-01-12 10:59:00+00:00,370.5212,1.9,11.37,47.84626,-54.09684
2024-01-12 11:09:00+00:00,379.8279,1.93,11.37,47.84626,-54.09684
2024-01-12 11:19:00+00:00,387.8762,1.94,11.37,47.84626,-54.09684
2024-01-12 11:29:00+00:00,384.5963,1.99,11.37,47.84626,-54.09684
2024-01-12 11:39:00+00:00,386.67800000000005,2.0,11.37,47.84626,-54.09684
2024-01-12 11:49:00+00:00,396.8397,2.0,11.37,47.84626,-54.09684
2024-01-12 11:59:00+00:00,397.6379,2.0,11.37,47.84626,-54.09684
2024-01-12 12:09:00+00:00,393.2946,2.0,11.37,47.84626,-54.09684
2024-01-12 12:19:01+00:00,399.8146,2.0,11.37,47.84626,-54.09684
2024-01-12 12:29:01+00:00,405.8362,2.0,11.37,47.84626,-54.09684
2024-01-12 12:39:01+00:00,398.4197,2.04,11.37,47.84626,-54.09684
2024-01-12 12:49:01+00:00,393.5063,2.07,11.37,47.84626,-54.09684
2024-01-12 12:59:01+00:00,399.7046,2.08,11.37,47.84626,-54.09684
2024-01-12 13:09:01+00:00,400.1396,2.09,11.37,47.84626,-54.09684
2024-01-12 13:19:00+00:00,390.9463,2.1,11.37,47.84626,-54.09684
2024-01-12 13:29:00+00:00,391.3845,2.1,11.37,47.84626,-54.09684
2024-01-12 13:39:00+00:00,393.4996,2.1,11.37,47.84626,-54.09684
2024-01-12 13:49:00+00:00,382.8013,2.1,11.37,47.84626,-54.09684
2024-01-12 13:59:00+00:00,372.1896,2.09,11.37,47.84626,-54.09684
2024-01-12 14:09:00+00:00,370.9095,2.09,11.37,47.84626,-54.09684
2024-01-12 14:19:00+00:00,368.0412,2.06,11.37,47.84626,-54.09684
2024-01-12 14:29:00+00:00,359.8946,2.0,11.37,47.84626,-54.09684
2024-01-12 14:39:00+00:00,351.7413,2.0,11.37,47.84626,-54.09684
2024-01-12 14:49:00+00:00,343.7579,2.0,11.37,47.84626,-54.09684
2024-01-12 14:59:00+00:00,336.4963,2.0,11.37,47.84626,-54.09684
2024-01-12 15:09:00+00:00,329.4864,2.0,11.37,47.84626,-54.09684
2024-01-12 15:19:00+00:00,319.613,2.0,11.37,47.84626,-54.09684
2024-01-12 15:29:00+00:00,306.3613,2.0,11.37,47.84626,-54.09684
2024-01-12 15:39:00+00:00,296.608,2.0,11.37,47.84626,-54.09684
2024-01-12 15:49:00+00:00,288.3397,2.0,11.37,47.84626,-54.09684
2024-01-12 15:59:00+00:00,275.8214,2.0,11.37,47.84626,-54.09684
2024-01-12 16:09:00+00:00,264.3214,2.0,11.37,47.84626,-54.09684
2024-01-12 16:19:00+00:00,259.4464,2.0,11.46,47.84626,-54.09684
2024-01-12 16:29:00+00:00,252.5414,2.0,11.46,47.84626,-54.09684
2024-01-12 16:39:00+00:00,238.8181,2.0,11.46,47.84626,-54.09684
2024-01-12 16:49:00+00:00,228.0348,2.0,11.46,47.84626,-54.09684
2024-01-12 16:59:00+00:00,224.0831,2.0,11.46,47.84626,-54.09684
2024-01-12 17:09:00+00:00,214.7314,2.0,11.46,47.84626,-54.09684
2024-01-12 17:19:01+00:00,204.1631,2.0,11.46,47.84626,-54.09684
2024-01-12 17:29:01+00:00,202.7881,2.01,11.46,47.84626,-54.09684
2024-01-12 17:39:01+00:00,203.4581,2.03,11.46,47.84626,-54.09684
2024-01-12 17:49:01+00:00,196.7665,2.05,11.46,47.84626,-54.09684
2024-01-12 17:59:01+00:00,192.9265,2.05,11.46,47.84626,-54.09684
2024-01-12 18:09:01+00:00,195.9865,2.07,11.46,47.84626,-54.09684
